Starlink 30880

operational
NORAD ID: 58232 Int'l Des: 2023-171 Owner: SPXS Country: US Constellation: starlink
LEOCIRCULAR

Starlink 30880について

説明を読み込み中...

リアルタイム位置

3D地球を読み込み中...

次回通過

高度履歴

Altitude vs Time

uPlot chart will show altitude changes over time

軌道要素

1 58232U 23171C 26036.64585213 .00000429 00000-0 46799-4 0 9999
2 58232 43.0025 100.2561 0001195 260.5846 99.4862 15.02533598124903
Epoch: Feb 5, 2026 • Age: 8 hours

現在のステータス

高度 558.5 km
速度 7.58 km/s
衛星直下点 6.49°N, 23.51°W
打ち上げ日 Nov 8, 2023
運用期間 2.2 years
タイプ internet

技術仕様

分類 Payload
質量 730.00 kg
乾燥質量 700.00 kg
総質量 730.00 kg
長さ 0.30 m
直径 4.10 m
スパン 29.00 m
形状 Box + pan
製造者 SPXS
バスタイプ Starlink V2M
フェーズステータス In Orbit
所有者/国 SPXS/US

大規模コンステレーション

Loading constellations...